Location: Bremen
(53.0793°N, 8.8017°E)
Time: 05:12:04
(UTC+02:00)

Explorer 7 - Pass Details

Date: 15 April 2024
Orbit: 467 x 626 km, 50.3° (Epoch: 17 May)

Event Time Altitude Azimuth Distance (km) Brightness Sun altitude
Rises 19:11:07 0° 279° (W) 2,880 12.7 10.1°
Reaches altitude 10° 19:13:36 10° 270° (W) 1,953 13.2 9.7°
Maximum altitude 19:17:40 35° 205° (SSW) 959 8.4 9.1°
Drops below altitude 10° 19:21:33 10° 140° (SE) 1,860 9.1 8.5°
Sets 19:23:52 0° 131° (SE) 2,724 9.9 8.2°
